Anula, Australia

12:58 AM ACST on April 20, 2018 (GMT +0930)
Anula

Weather History for 94120 - March, 2013

Change the Weather History Date:

Thursday, March 14, 2013

  Actual Average Record
Temperature  
Mean Temperature 81 °F -  
Max Temperature 89 °F 90 °F - ()
Min Temperature 73 °F 76 °F - ()
Cooling Degree Days 16    
Growing Degree Days 31 (Base 50)    
Moisture  
Dew Point 75 °F    
Average Humidity 77    
Maximum Humidity 100    
Minimum Humidity 56    
Precipitation  
Precipitation 0.00 in 0.29 in - ()
Sea Level Pressure  
Sea Level Pressure 29.76 in    
Wind  
Wind Speed 11 mph ()    
Max Wind Speed 22 mph    
Max Gust Speed 30 mph    
Visibility 7.7 miles    
Events Rain , Thunderstorm    
T = Trace of Precipitation, MM = Missing Value Source: Averaged Metar Reports

Daily Weather History Graph

Daily Weather History Graph

Search for Another Location

Airport or City:

Astronomy

Mar. 14, 2013 Rise Set
Actual Time 6:50 AM ACST 7:01 PM ACST
Civil Twilight 6:28 AM ACST 7:22 PM ACST
Nautical Twilight 6:04 AM ACST 7:47 PM ACST
Astronomical Twilight 5:39 AM ACST 8:11 PM ACST
Moon 8:36 AM ACST (3/14) 8:38 PM ACST (3/14)
Length of Visible Light 12h 53m
Length of Day
12h 11m
Waxing Crescent, 6% of the Moon is Illuminated
Mar 14
Waxing Crescent
Mar 20
First Quarter
Mar 27
Full
Apr 3
Last Quarter
Apr 10
New

Hourly Weather History & Observations

Time (ACST) Temp. Heat Index Dew Point Humidity Pressure Visibility Wind Dir Wind Speed Gust Speed Precip Events Conditions
12:00 AM 84 °F - 79 °F 81% 29.79 in 19 mi West 12.7 mph - -   Scattered Clouds
12:00 AM 84.2 °F 96.1 °F 78.8 °F 84% 29.77 in 6.2 mi West 12.7 mph - N/A   Mostly Cloudy
12:30 AM 84 °F - 79 °F 80% 29.79 in - West 10.4 mph - -  
12:30 AM 84.2 °F 96.1 °F 78.8 °F 84% 29.77 in 6.2 mi West 10.4 mph - N/A   Mostly Cloudy
1:00 AM 84.2 °F 96.1 °F 78.8 °F 84% 29.77 in 6.2 mi WSW 10.4 mph - N/A   Mostly Cloudy
1:30 AM 78.8 °F - 71.6 °F 78% 29.80 in 6.2 mi SSE 18.4 mph 29.9 mph N/A   Mostly Cloudy
1:41 AM 75.2 °F - 69.8 °F 83% 29.80 in 3.1 mi SE 21.9 mph - N/A Rain Rain Showers
1:46 AM 73.4 °F - 71.6 °F 94% 29.80 in 1.2 mi SE 19.6 mph - N/A Rain Heavy Rain Showers
2:00 AM 75.2 °F - 73.4 °F 94% 29.77 in 2.5 mi SSW 18.4 mph - N/A Rain Rain Showers
2:15 AM 73.4 °F - 73.4 °F 100% 29.71 in 3.7 mi WSW 18.4 mph - N/A Rain Rain Showers
2:30 AM 75.2 °F - 71.6 °F 89% 29.68 in 6.2 mi West 19.6 mph - N/A   Mostly Cloudy
3:00 AM 75 °F - 72 °F 89% 29.73 in 19 mi NW 5.8 mph - - Thunderstorm Light Thunderstorm
3:00 AM 75.2 °F - 71.6 °F 89% 29.74 in 6.2 mi NW 5.8 mph - N/A   Mostly Cloudy
3:30 AM 75 °F - 72 °F 89% 29.76 in - NW 6.9 mph - -  
3:30 AM 75.2 °F - 73.4 °F 94% 29.77 in 6.2 mi NW 6.9 mph - N/A Rain Light Rain
4:00 AM 77.0 °F - 73.4 °F 89% 29.74 in 6.2 mi North 8.1 mph - N/A   Mostly Cloudy
4:30 AM 77.0 °F - 73.4 °F 89% 29.74 in 6.2 mi NNW 9.2 mph - N/A   Mostly Cloudy
5:00 AM 75.2 °F - 73.4 °F 94% 29.71 in 6.2 mi NNW 9.2 mph - N/A   Mostly Cloudy
5:30 AM 77.0 °F - 71.6 °F 83% 29.71 in 6.2 mi NW 11.5 mph - N/A   Mostly Cloudy
6:00 AM 78 °F - 72 °F 77% 29.71 in 19 mi WNW 15.0 mph - -   Partly Cloudy
6:00 AM 77.0 °F - 71.6 °F 83% 29.71 in 6.2 mi WNW 15.0 mph - N/A   Mostly Cloudy
6:30 AM 78 °F - 73 °F 80% 29.73 in - West 10.4 mph - -  
6:30 AM 78.8 °F - 73.4 °F 83% 29.71 in 6.2 mi West 10.4 mph - N/A   Mostly Cloudy
7:00 AM 78.8 °F - 73.4 °F 83% 29.74 in 6.2 mi West 9.2 mph - N/A   Mostly Cloudy
7:30 AM 78.8 °F - 73.4 °F 83% 29.74 in 6.2 mi SW 6.9 mph - N/A   Mostly Cloudy
8:00 AM 78.8 °F - 73.4 °F 83% 29.74 in 6.2 mi SSW 6.9 mph - N/A   Mostly Cloudy
8:30 AM 80.6 °F 86.2 °F 75.2 °F 84% 29.77 in 6.2 mi West 1.2 mph - N/A   Mostly Cloudy
9:00 AM 81 °F - 75 °F 77% 29.78 in 19 mi North 3.5 mph - -   Partly Cloudy
9:00 AM 80.6 °F 86.2 °F 75.2 °F 84% 29.77 in 6.2 mi North 3.5 mph - N/A   Mostly Cloudy
9:30 AM 82 °F - 75 °F 73% 29.81 in - NW 5.8 mph - -  
9:30 AM 82.4 °F 89.5 °F 75.2 °F 79% 29.80 in - NW 5.8 mph - N/A   Clear
10:00 AM 82.4 °F 89.5 °F 75.2 °F 79% 29.80 in 6.2 mi WSW 4.6 mph - N/A   Mostly Cloudy
10:30 AM 86.0 °F 95.1 °F 75.2 °F 70% 29.80 in 6.2 mi West 8.1 mph - N/A   Scattered Clouds
11:00 AM 86.0 °F 95.1 °F 75.2 °F 70% 29.80 in 6.2 mi West 12.7 mph - N/A   Mostly Cloudy
11:30 AM 87.8 °F 95.6 °F 73.4 °F 62% 29.80 in 6.2 mi West 9.2 mph - N/A   Mostly Cloudy
12:00 PM 88 °F - 75 °F 58% 29.78 in 19 mi WNW 10.4 mph - -   Partly Cloudy
12:00 PM 87.8 °F 97.6 °F 75.2 °F 66% 29.77 in 6.2 mi WNW 10.4 mph - N/A   Mostly Cloudy
12:30 PM 88 °F - 74 °F 56% 29.78 in - WNW 11.5 mph - -  
12:30 PM 87.8 °F 97.6 °F 75.2 °F 66% 29.77 in 6.2 mi WNW 11.5 mph - N/A   Mostly Cloudy
1:00 PM 89.6 °F 98.2 °F 73.4 °F 59% 29.77 in 6.2 mi WNW 13.8 mph - N/A   Mostly Cloudy
1:30 PM 89.6 °F 102.2 °F 77.0 °F 66% 29.74 in 6.2 mi WNW 16.1 mph - N/A   Scattered Clouds
2:00 PM 89.6 °F 99.8 °F 75.2 °F 62% 29.74 in 6.2 mi WNW 15.0 mph - N/A   Partly Cloudy
2:30 PM 89.6 °F 98.2 °F 73.4 °F 59% 29.74 in 6.2 mi WNW 15.0 mph - N/A   Partly Cloudy
3:00 PM 89 °F - 77 °F 59% 29.73 in 19 mi WNW 17.3 mph - -   Partly Cloudy
3:00 PM 89.6 °F 102.2 °F 77.0 °F 66% 29.71 in 6.2 mi WNW 17.3 mph - N/A   Scattered Clouds
3:30 PM 89 °F - 77 °F 60% 29.72 in - WNW 18.4 mph - -  
3:30 PM 89.6 °F 102.2 °F 77.0 °F 66% 29.71 in 6.2 mi WNW 18.4 mph - N/A   Scattered Clouds
4:00 PM 89.6 °F 102.2 °F 77.0 °F 66% 29.71 in 6.2 mi WNW 17.3 mph - N/A   Scattered Clouds
4:30 PM 87.8 °F 99.7 °F 77.0 °F 70% 29.71 in 6.2 mi WNW 16.1 mph - N/A   Scattered Clouds
5:00 PM 87.8 °F 99.7 °F 77.0 °F 70% 29.71 in 6.2 mi WNW 16.1 mph - N/A   Scattered Clouds
5:30 PM 87.8 °F 99.7 °F 77.0 °F 70% 29.71 in 6.2 mi WNW 17.3 mph - N/A   Scattered Clouds
6:00 PM 86 °F - 76 °F 65% 29.71 in 19 mi WNW 15.0 mph - -   Partly Cloudy
6:00 PM 86.0 °F 95.1 °F 75.2 °F 70% 29.71 in 6.2 mi WNW 15.0 mph - N/A   Scattered Clouds
6:30 PM 85 °F - 77 °F 70% 29.74 in - WNW 11.5 mph - -  
6:30 PM 86.0 °F 96.9 °F 77.0 °F 74% 29.74 in 6.2 mi WNW 11.5 mph - N/A   Mostly Cloudy
7:00 PM 84.2 °F 94.1 °F 77.0 °F 79% 29.74 in 6.2 mi WNW 11.5 mph - N/A   Mostly Cloudy
7:30 PM 84.2 °F 94.1 °F 77.0 °F 79% 29.77 in 6.2 mi West 9.2 mph - N/A   Mostly Cloudy
8:00 PM 84.2 °F 94.1 °F 77.0 °F 79% 29.77 in 6.2 mi West 9.2 mph - N/A   Mostly Cloudy
8:30 PM 84.2 °F 96.1 °F 78.8 °F 84% 29.80 in 6.2 mi West 9.2 mph - N/A   Mostly Cloudy
9:00 PM 84 °F - 78 °F 77% 29.82 in 19 mi West 11.5 mph - -   Partly Cloudy
9:00 PM 84.2 °F 96.1 °F 78.8 °F 84% 29.83 in 6.2 mi West 11.5 mph - N/A   Mostly Cloudy
9:30 PM 84 °F - 78 °F 78% 29.84 in - West 11.5 mph - -  
9:30 PM 84.2 °F 96.1 °F 78.8 °F 84% 29.83 in 6.2 mi West 11.5 mph - N/A   Mostly Cloudy
10:00 PM 84.2 °F 96.1 °F 78.8 °F 84% 29.83 in 6.2 mi West 10.4 mph - N/A   Mostly Cloudy
10:30 PM 84.2 °F 94.1 °F 77.0 °F 79% 29.83 in 6.2 mi West 10.4 mph - N/A   Scattered Clouds
11:00 PM 84.2 °F 96.1 °F 78.8 °F 84% 29.83 in 6.2 mi West 10.4 mph - N/A   Scattered Clouds
11:30 PM 84.2 °F 96.1 °F 78.8 °F 84% 29.83 in 6.2 mi WNW 11.5 mph - N/A   Scattered Clouds